Weather History for KMMH - May, 2013

Change the Weather History Date:

Monday, May 6, 2013

  Actual Average (KBIH) Record (KBIH)
Temperature  
Mean Temperature 39 °F 60 °F  
Max Temperature 48 °F 79 °F 94 °F (1989)
Min Temperature 30 °F 42 °F 29 °F (1988)
Degree Days  
Heating Degree Days 26 5  
Month to date heating degree days 36  
Since 1 July heating degree days 4078  
Cooling Degree Days 0 1  
Month to date cooling degree days 4  
Year to date cooling degree days 8  
Moisture  
Dew Point 32 °F    
Average Humidity 81    
Maximum Humidity 93    
Minimum Humidity 54    
Precipitation  
Precipitation 0.05 in 0.00 in 0.56 in (1971)
Month to date precipitation 0.03  
Year to date precipitation 2.72  
Snow  
Snow 0.00 in 0.00 in T in (1965)
Month to date snowfall 0.0  
Since 1 July snowfall 6.8  
Snow Depth -    
Sea Level Pressure  
Sea Level Pressure 29.94 in    
Wind  
Wind Speed 3 mph (WSW)    
Max Wind Speed 17 mph    
Max Gust Speed 23 mph    
Visibility 10 miles    
Events Rain    
T = Trace of Precipitation, MM = Missing Value Source: NWS Daily Summary

Daily Weather History Graph

Daily Weather History Graph

Search for Another Location

Airport or City:

Trip Planner

Search our weather history database for the weather conditions in past years. The results will help you decide how hot, cold, wet, or windy it might be!

Date:

Astronomy

May. 06, 2013 Rise Set
Actual Time 5:54 AM PDT 7:50 PM PDT
Civil Twilight 5:25 AM PDT 8:19 PM PDT
Nautical Twilight 4:50 AM PDT 8:53 PM PDT
Astronomical Twilight 4:13 AM PDT 9:31 PM PDT
Moon 3:55 AM PDT (5/6) 4:58 PM PDT (5/6)
Length of Visible Light 14h 53m
Length of Day
13h 56m
Waning Crescent, 10% of the Moon is Illuminated
May 6
Waning Crescent
May 9
New
May 17
First Quarter
May 24
Full
May 31
Last Quarter

Hourly Weather History & Observations

Time (PDT) Temp. Windchill Dew Point Humidity Pressure Visibility Wind Dir Wind Speed Gust Speed Precip Events Conditions
12:15 AM 37.4 °F - 28.4 °F 70% 29.89 in 10.0 mi Calm Calm - N/A   Clear
12:35 AM 33.8 °F - 26.6 °F 75% 29.89 in 10.0 mi Calm Calm - N/A   Clear
12:55 AM 35.6 °F - 28.4 °F 75% 29.89 in 10.0 mi Calm Calm - N/A   Scattered Clouds
1:15 AM 33.8 °F - 28.4 °F 81% 29.89 in 10.0 mi Calm Calm - N/A   Clear
1:35 AM 33.8 °F 30.8 °F 28.4 °F 81% 29.89 in 10.0 mi WNW 3.5 mph - N/A   Clear
1:55 AM 32.0 °F - 26.6 °F 80% 29.89 in 10.0 mi Calm Calm - N/A   Clear
2:15 AM 30.2 °F - 26.6 °F 86% 29.89 in 10.0 mi Calm Calm - N/A   Clear
2:35 AM 32.0 °F - 26.6 °F 80% 29.89 in 10.0 mi Calm Calm - N/A   Clear
2:55 AM 30.2 °F 25.4 °F 26.6 °F 86% 29.89 in 10.0 mi North 4.6 mph - N/A   Scattered Clouds
3:15 AM 32.0 °F - 28.4 °F 87% 29.89 in 10.0 mi North - - N/A   Scattered Clouds
3:35 AM 32.0 °F - 28.4 °F 87% 29.89 in 10.0 mi North - - N/A   Clear
3:55 AM 30.2 °F 24.3 °F 24.8 °F 80% 29.89 in 10.0 mi NNW 5.8 mph - N/A   Clear
4:15 AM 30.2 °F 26.7 °F 26.6 °F 86% 29.90 in 10.0 mi WNW 3.5 mph - N/A   Scattered Clouds
4:35 AM 32.0 °F - 26.6 °F 80% 29.90 in 10.0 mi Calm Calm - N/A   Mostly Cloudy
4:55 AM 30.2 °F - 26.6 °F 86% 29.90 in 10.0 mi Calm Calm - N/A   Overcast
5:15 AM 30.2 °F - 26.6 °F 86% 29.90 in 10.0 mi Calm Calm - N/A   Overcast
5:35 AM 30.2 °F - 26.6 °F 86% 29.91 in 10.0 mi Calm Calm - N/A   Overcast
5:55 AM 32.0 °F - 26.6 °F 80% 29.91 in 10.0 mi Calm Calm - N/A   Overcast
6:15 AM 32.0 °F - 26.6 °F 80% 29.91 in 10.0 mi Calm Calm - N/A   Overcast
6:35 AM 32.0 °F - 28.4 °F 87% 29.91 in 10.0 mi Calm Calm - N/A   Overcast
6:55 AM 35.6 °F 30.7 °F 32.0 °F 87% 29.92 in 10.0 mi East 5.8 mph - N/A   Overcast
7:15 AM 37.4 °F 33.8 °F 33.8 °F 87% 29.92 in 10.0 mi ESE 4.6 mph - N/A   Overcast
7:35 AM 37.4 °F 34.9 °F 32.0 °F 81% 29.92 in 10.0 mi East 3.5 mph - N/A   Overcast
7:55 AM 37.4 °F - 33.8 °F 87% 29.92 in 10.0 mi Calm Calm - N/A   Overcast
8:15 AM 39.2 °F - 32.0 °F 75% 29.93 in 10.0 mi Calm Calm - N/A   Overcast
8:35 AM 39.2 °F - 32.0 °F 75% 29.93 in 10.0 mi Calm Calm - N/A   Overcast
8:55 AM 41.0 °F - 32.0 °F 70% 29.93 in 10.0 mi Calm Calm - N/A   Overcast
9:15 AM 41.0 °F - 32.0 °F 70% 29.93 in 10.0 mi North - - N/A   Overcast
9:35 AM 42.8 °F - 32.0 °F 66% 29.93 in 10.0 mi North - - N/A   Overcast
9:55 AM 42.8 °F - 32.0 °F 66% 29.93 in 10.0 mi Calm Calm - N/A   Overcast
10:15 AM 42.8 °F - 32.0 °F 66% 29.94 in 10.0 mi Calm Calm - N/A   Overcast
10:35 AM 48.2 °F - 32.0 °F 54% 29.94 in 10.0 mi North - - N/A   Overcast
10:55 AM 44.6 °F - 32.0 °F 61% 29.94 in 10.0 mi Calm Calm - N/A Rain Rain
11:15 AM 41.0 °F 33.5 °F 35.6 °F 81% 29.94 in 7.0 mi West 13.8 mph - N/A Rain Rain
11:35 AM 41.0 °F 33.9 °F 35.6 °F 81% 29.94 in 10.0 mi West 12.7 mph 18.4 mph N/A   Overcast
11:55 AM 41.0 °F 33.9 °F 35.6 °F 81% 29.95 in 10.0 mi West 12.7 mph 17.3 mph N/A   Overcast
12:15 PM 41.0 °F 33.9 °F 37.4 °F 87% 29.95 in 10.0 mi West 12.7 mph 17.3 mph N/A Rain Light Rain
12:35 PM 39.2 °F 31.2 °F 35.6 °F 87% 29.96 in 5.0 mi West 13.8 mph - N/A Rain Light Rain
12:55 PM 37.4 °F 33.8 °F 35.6 °F 93% 29.96 in 3.0 mi West 4.6 mph - 0.01 in Rain Light Rain
1:15 PM 37.4 °F 32.8 °F 35.6 °F 93% 29.96 in 3.0 mi WSW 5.8 mph - 0.01 in Rain Light Rain
1:35 PM 37.4 °F 34.9 °F 33.8 °F 87% 29.97 in 3.0 mi WSW 3.5 mph - 0.03 in Rain Rain
1:55 PM 37.4 °F 33.8 °F 35.6 °F 93% 29.97 in 7.0 mi West 4.6 mph - 0.04 in Rain Light Rain
2:15 PM 39.2 °F 37.0 °F 37.4 °F 93% 29.96 in 10.0 mi NW 3.5 mph - N/A Rain Light Rain
2:35 PM 42.8 °F 39.3 °F 39.2 °F 87% 29.95 in 10.0 mi NW 5.8 mph - N/A   Overcast
2:55 PM 44.6 °F - 39.2 °F 81% 29.94 in 10.0 mi North - - N/A   Mostly Cloudy
3:15 PM 46.4 °F 43.5 °F 37.4 °F 71% 29.92 in 10.0 mi West 5.8 mph - N/A   Clear
3:35 PM 44.6 °F 39.2 °F 35.6 °F 71% 29.93 in 10.0 mi WSW 10.4 mph 23.0 mph N/A   Mostly Cloudy
3:55 PM 41.0 °F 35.8 °F 35.6 °F 81% 29.94 in 10.0 mi SE 8.1 mph 17.3 mph N/A Rain Light Rain
4:15 PM 41.0 °F 37.1 °F 35.6 °F 81% 29.93 in 10.0 mi SSE 5.8 mph - N/A   Overcast
4:35 PM 42.8 °F - 33.8 °F 70% 29.92 in 10.0 mi Calm Calm - N/A   Overcast
4:55 PM 46.4 °F - 33.8 °F 62% 29.92 in 10.0 mi North - - N/A   Mostly Cloudy
5:15 PM 46.4 °F 41.1 °F 32.0 °F 57% 29.93 in 10.0 mi South 11.5 mph - N/A   Mostly Cloudy
5:35 PM 41.0 °F 34.7 °F 35.6 °F 81% 29.94 in 10.0 mi South 10.4 mph 18.4 mph N/A   Overcast
5:55 PM 41.0 °F 32.5 °F 33.8 °F 76% 29.94 in 10.0 mi SSW 17.3 mph 21.9 mph N/A   Overcast
6:15 PM 39.2 °F 31.6 °F 33.8 °F 81% 29.94 in 10.0 mi SSW 12.7 mph - N/A   Overcast
6:35 PM 39.2 °F 37.0 °F 33.8 °F 81% 29.96 in 10.0 mi ESE 3.5 mph - N/A   Overcast
6:55 PM 39.2 °F 35.9 °F 33.8 °F 81% 29.96 in 10.0 mi ESE 4.6 mph - N/A   Overcast
7:15 PM 39.2 °F - 33.8 °F 81% 29.96 in 10.0 mi Calm Calm - N/A   Overcast
7:55 PM 39.2 °F - 33.8 °F 81% 29.96 in 10.0 mi Calm Calm - N/A   Overcast
8:15 PM 37.4 °F 34.9 °F 33.8 °F 87% 29.97 in 10.0 mi NE 3.5 mph - N/A   Overcast
8:35 PM 37.4 °F - 33.8 °F 87% 29.97 in 10.0 mi Calm Calm - N/A   Overcast
8:55 PM 37.4 °F - 33.8 °F 87% 29.97 in 10.0 mi Calm Calm - N/A   Overcast
9:15 PM 37.4 °F - 33.8 °F 87% 29.98 in 10.0 mi North - - N/A   Overcast
9:35 PM 37.4 °F - 33.8 °F 87% 29.99 in 10.0 mi Calm Calm - N/A   Overcast
9:55 PM 37.4 °F - 33.8 °F 87% 29.99 in 10.0 mi North - - N/A   Overcast
10:15 PM 37.4 °F - 33.8 °F 87% 29.99 in 10.0 mi Calm Calm - N/A   Overcast
10:35 PM 35.6 °F - 33.8 °F 93% 29.99 in 10.0 mi North - - N/A   Overcast
10:55 PM 35.6 °F - 33.8 °F 93% 29.99 in 10.0 mi Calm Calm - N/A   Overcast
11:15 PM 35.6 °F - 33.8 °F 93% 29.99 in 10.0 mi Calm Calm - N/A   Overcast
11:35 PM 35.6 °F - 33.8 °F 93% 29.99 in 10.0 mi Calm Calm - N/A   Overcast
11:55 PM 35.6 °F - 33.8 °F 93% 29.99 in 10.0 mi Calm Calm - N/A   Overcast